TimeEDT,TemperatureF,Dew PointF,Humidity,Sea Level PressureIn,VisibilityMPH,Wind Direction,Wind SpeedMPH,Gust SpeedMPH,PrecipitationIn,Events,Conditions,WindDirDegrees,DateUTC
12:02 AM,68.0,64.4,88,29.71,7.0,West,5.8,-,0.00,Rain,Light Rain,260,2013-09-22 04:02:00
12:11 AM,68.0,64.4,88,29.71,6.0,NNW,8.1,-,0.01,Rain,Rain,330,2013-09-22 04:11:00
12:22 AM,66.2,62.6,88,29.71,8.0,NNW,9.2,-,0.03,Rain,Rain,340,2013-09-22 04:22:00
12:39 AM,64.4,62.6,94,29.71,2.0,Variable,5.8,-,0.13,Rain,Heavy Rain,0,2013-09-22 04:39:00
12:54 AM,64.0,61.0,90,29.72,1.2,Variable,4.6,-,0.32,Rain,Heavy Rain,0,2013-09-22 04:54:00
1:05 AM,64.4,60.8,88,29.72,3.0,NNW,4.6,-,0.09,Rain,Rain,330,2013-09-22 05:05:00
1:54 AM,64.0,61.0,90,29.69,10.0,Calm,Calm,-,0.17,Rain,Light Rain,0,2013-09-22 05:54:00
2:54 AM,64.0,62.1,93,29.70,10.0,West,4.6,-,0.01,Rain,Light Rain,270,2013-09-22 06:54:00
3:54 AM,64.0,62.1,93,29.71,10.0,NNW,8.1,-,0.01,Rain,Light Rain,330,2013-09-22 07:54:00
4:54 AM,64.0,61.0,90,29.73,10.0,WNW,6.9,-,0.00,,Mostly Cloudy,300,2013-09-22 08:54:00
5:54 AM,63.0,60.1,90,29.75,10.0,NW,3.5,-,N/A,,Mostly Cloudy,310,2013-09-22 09:54:00
6:54 AM,61.0,57.9,90,29.77,10.0,WNW,3.5,-,N/A,,Clear,290,2013-09-22 10:54:00
7:54 AM,63.0,59.0,87,29.79,10.0,NNW,9.2,-,N/A,,Clear,330,2013-09-22 11:54:00
8:54 AM,63.0,53.1,70,29.82,10.0,NNW,11.5,18.4,N/A,,Clear,330,2013-09-22 12:54:00
9:54 AM,64.9,50.0,58,29.83,10.0,NNW,15.0,-,N/A,,Clear,340,2013-09-22 13:54:00
10:54 AM,68.0,50.0,52,29.82,10.0,NNW,15.0,23.0,N/A,,Clear,340,2013-09-22 14:54:00
11:54 AM,69.1,48.9,49,29.82,10.0,NW,10.4,17.3,N/A,,Partly Cloudy,320,2013-09-22 15:54:00
12:54 PM,68.0,46.0,45,29.82,10.0,NNW,13.8,-,N/A,,Mostly Cloudy,330,2013-09-22 16:54:00
1:54 PM,70.0,46.0,42,29.82,10.0,NW,16.1,23.0,N/A,,Mostly Cloudy,310,2013-09-22 17:54:00
2:54 PM,68.0,46.0,45,29.82,10.0,NNW,12.7,-,N/A,,Overcast,340,2013-09-22 18:54:00
3:54 PM,70.0,45.0,41,29.82,10.0,NW,13.8,-,N/A,,Scattered Clouds,310,2013-09-22 19:54:00
4:54 PM,68.0,44.1,42,29.82,10.0,NW,9.2,-,N/A,,Partly Cloudy,320,2013-09-22 20:54:00
5:54 PM,66.0,44.1,45,29.85,10.0,NNW,9.2,-,N/A,,Mostly Cloudy,330,2013-09-22 21:54:00
6:54 PM,62.1,45.0,53,29.86,10.0,NNW,5.8,-,N/A,,Clear,340,2013-09-22 22:54:00
7:54 PM,61.0,44.1,54,29.88,10.0,NNW,8.1,-,N/A,,Clear,330,2013-09-22 23:54:00
8:54 PM,59.0,44.1,58,29.91,10.0,North,6.9,-,N/A,,Clear,350,2013-09-23 00:54:00
9:54 PM,57.9,44.1,60,29.93,10.0,North,5.8,-,N/A,,Clear,10,2013-09-23 01:54:00
10:54 PM,57.0,44.1,62,29.94,10.0,North,6.9,-,N/A,,Clear,10,2013-09-23 02:54:00
11:54 PM,57.0,44.1,62,29.95,10.0,North,8.1,-,N/A,,Mostly Cloudy,10,2013-09-23 03:54:00